COSMOS 2251 DEB

Satellite information

Favourite Embed

Satellite Type and Status

DEBRISIN ORBIT

Key statistics

Satellite COSMOS 2251 DEB at a glance.

Uptime

11708

Days in orbit

Revolutions

≈ 14.5

Per day

Orbit

LEO

Low Earth Orbit

Inclination

74.0

Latest

Satellite identification and parameters

Extended collection of information and parameters for COSMOS 2251 DEB.

Object identification

Identified? True

Debris? True

Object name: COSMOS 2251 DEB

International designator: 1993-036TM

Object number (NORAD): 34468

Object ID (CCSDS): 34468

Country: COMMONWEALTH OF INDEPENDENT STATES (CIS)

Current information (Y/N): Y

RCS size: SMALL

Orbital parameters

Period: 99.506 minutes

Inclination: 74.0132 deg

SMA: 7113.134 km

Apoapsis: 789.663 km

Periapsis: 680.335 km

RAAN: 57.0296 deg

Eccentricy: 0.007685

Argument of periapsis: 240.256 deg

Mean anomaly: 119.0938 deg

Mean motion: 14.47142441 rev/day

Mean motion (dot): 0.00000501 rev/day2

B* drag term: 0.00014029 1/REarth

Two-line elements (TLE)

Creation date: July 5, 2025, 5:45 p.m.

Reference frame: TEME

Reference center: EARTH

Epoch: July 5, 2025, 3:04 p.m. UTC

TLE line 0: 0 COSMOS 2251 DEB

TLE line 1: 1 34468U 93036TM 25186.62840085 .00000501 00000-0 14029-3 0 9996

TLE line 2: 2 34468 74.0132 57.0296 0076850 240.2560 119.0938 14.47142441861455

Live tracking on map

Real-time ground track for satellite COSMOS 2251 DEB.

In-orbit conjunctions

A list of the most updated potential collisions computed for object COSMOS 2251 DEB.

Target Orbit TCA Probability of collision Miss distance Type
GEOSAT SSO 2024-11-27 18:14:01 0.0004240009 800.0 (m) PAYLOAD
METEOR 2-5 DEB LEO 2024-11-16 02:17:27 0.0001338975 766.0 (m) DEBRIS
FENGYUN 1C DEB SSO 2024-11-08 20:58:23 0.0001296957 653.0 (m) DEBRIS
IRS P4 (OCEANSAT 1) SSO 2024-11-02 18:53:31 0.0004088931 104.0 (m) PAYLOAD
CZ-6 R/B LEO 2024-08-21 12:34:07 0.0002677454 740.0 (m) ROCKET BODY

Associated space launch

Military communications satellite. Destroyed in a collision with Iridium 33.

COSMOS 2251 DEB was lifted into orbit during the mission ‘Kosmos-3M | Strela-2M 51’, on board a Kosmos-3M space rocket.

The launch took place on June 16, 1993, 4:17 a.m. from 132/1 (132L).

For more information about the launch, click the button.

Launch to space Kosmos-3M | Strela-2M 51
Kosmos-3M | Strela-2M 51

Agency: N/A

Status: Launch Successful

Launch date: June 16, 1993, 4:17 a.m. UTC

Rocket: Kosmos-3M

Launch pad: 132/1 (132L)

Location: Plesetsk Cosmodrome, Russian Federation

...

Latest news about this satellite

There are no fresh news available about this satellite. Check back as we update our databases every day.


Newsletter sign-up

Weekly statistics, charts and insights to help you stay on top of the space industry.